[[{"header":{"parameterUnit":"m.s-1","parameterCategory":1,"la1":30.2991,"la2":30.254,"lo1":-89.0895,"lo2":-89.0444,"dy":0.0017,"dx":0.0017,"nx":28,"ny":28,"refTime":"2025-05-23T03:00:00:Z","depth":0,"parameterNumber":2,"parameterNumberName":"U-component_of_WINDS"},"data":[0,0,0,0,0,0,0,0,0,0,0,0,0,0,0,0,0,0,0,0,0,0,0,0,0,0,0,0,0,0,0,0,0,0,0,0,0,0,0,0,0,0,0,0,0,0,0,0,0,0,0,0,0,0,0,0,0,0,-0.6713,-0.6713,0,-0.6641,-0.664,-0.6639,-0.6599,-0.6599,-0.6599,-0.6599,-0.6523,-0.6521,-0.6519,0,0,0,0,0,0,0,0,0,0,0,0,0,-0.6818,-0.6816,-0.6713,-0.6712,-0.6712,-0.6641,-0.664,-0.6639,-0.6599,-0.6599,-0.6599,-0.6599,-0.6523,-0.6521,-0.6519,0,0,0,0,0,0,0,0,0,0,0,0,0,-0.6761,-0.6815,-0.6714,-0.6683,-0.668,-0.6641,-0.664,-0.6638,-0.6599,-0.6599,-0.6599,-0.6598,-0.6524,-0.6521,-0.6518,-0.6504,0,0,-0.651,-0.6508,0,0,0,0,0,0,0,0,-0.6765,-0.6758,-0.6689,-0.6685,-0.6681,-0.6629,-0.6649,-0.6593,-0.6599,-0.663,-0.6599,-0.6598,-0.6558,-0.6552,-0.6539,-0.65,-0.6497,-0.6509,-0.6508,-0.6506,-0.6506,0,0,0,0,0,0,0,-0.6768,-0.676,-0.6685,-0.6688,-0.6683,-0.6673,-0.6665,-0.6638,-0.6596,-0.6627,-0.6624,-0.6616,-0.6556,-0.6542,-0.6537,-0.6496,-0.6509,-0.6507,-0.6505,-0.6504,-0.6443,-0.6443,0,0,0,0,0,0,-0.6777,-0.6764,-0.6687,-0.6682,-0.6723,-0.6671,-0.6662,-0.6646,-0.6596,-0.6588,-0.6616,-0.6614,-0.6547,-0.654,-0.6534,-0.6514,-0.6506,-0.6504,-0.6502,-0.6443,-0.6443,-0.6443,0,0,0,0,0,0,-0.678,-0.6771,-0.669,-0.6722,-0.6711,-0.667,-0.6652,-0.6644,-0.663,-0.6588,-0.658,-0.6609,-0.6546,-0.6538,-0.6512,-0.6511,-0.6502,-0.65,-0.6442,-0.6443,-0.6443,-0.6474,0,0,0,0,0,0,-0.6783,-0.6772,-0.6766,-0.6722,-0.671,-0.6669,-0.6651,-0.6643,-0.6625,-0.6622,-0.6579,-0.6572,-0.6546,-0.6517,-0.6509,-0.6507,-0.6498,-0.6442,-0.6442,-0.6443,-0.6473,-0.6475,-0.6477,0,0,0,0,0,-0.6787,-0.6777,-0.6766,-0.6757,-0.6701,-0.6669,-0.6662,-0.6632,-0.6626,-0.6619,-0.6592,-0.6573,-0.6513,-0.6514,-0.6506,-0.6502,-0.6442,-0.6442,-0.6443,-0.6472,-0.6475,-0.6477,0,0,0,0,0,0,-0.6821,-0.6771,-0.6758,-0.6734,-0.6706,-0.6662,-0.6653,-0.6636,-0.6609,-0.6607,-0.6571,-0.6562,-0.6539,-0.6518,-0.6521,-0.6486,-0.6475,-0.6474,-0.6501,-0.6503,-0.6505,-0.6511,-0.6495,0,0,0,0,0,-0.6826,-0.6804,-0.6761,-0.6745,-0.6731,-0.6695,-0.668,-0.666,-0.6629,-0.6617,-0.6588,-0.6559,-0.6533,-0.6517,-0.6491,-0.647,-0.646,-0.6464,-0.6466,-0.6468,-0.6467,-0.6455,-0.6456,-0.6443,-0.6443,-0.6443,0,0,-0.6836,-0.6806,-0.6794,-0.6751,-0.6727,-0.6705,-0.6685,-0.6663,-0.6646,-0.6613,-0.6587,-0.6565,-0.653,-0.6507,-0.6495,-0.6489,-0.6468,-0.6468,-0.647,-0.6468,-0.6455,-0.6457,-0.6458,-0.6444,-0.6444,-0.6444,0,0,-0.6842,-0.6817,-0.6801,-0.6777,-0.6742,-0.6718,-0.6714,-0.6673,-0.6657,-0.6631,-0.6606,-0.6586,-0.6542,-0.6519,-0.6501,-0.65,-0.6482,-0.6493,-0.6504,-0.6493,-0.6494,-0.6494,-0.6495,-0.6495,-0.6492,-0.6492,-0.6492,0,-0.6858,-0.6825,-0.6794,-0.6773,-0.6755,-0.6726,-0.6709,-0.6688,-0.6645,-0.6634,-0.6627,-0.6573,-0.6547,-0.6518,-0.6518,-0.6505,-0.65,-0.6497,-0.6496,-0.6497,-0.6497,-0.6496,-0.6496,-0.6494,-0.6493,-0.6493,-0.6493,0,-0.6847,-0.6824,-0.6815,-0.6776,-0.6757,-0.6738,-0.6705,-0.6689,-0.6671,-0.6648,-0.6622,-0.659,-0.6558,-0.6549,-0.6531,-0.6518,-0.6515,-0.6503,-0.6491,-0.65,-0.6499,-0.6499,-0.6496,-0.6495,-0.6495,-0.6494,0,0,-0.6872,-0.6817,-0.6814,-0.6796,-0.6755,-0.6737,-0.6717,-0.6686,-0.6674,-0.6646,-0.6629,-0.6593,-0.6582,-0.6562,-0.6541,-0.6531,-0.6533,-0.652,-0.6519,-0.6524,-0.6518,-0.6527,-0.6528,-0.6521,-0.6521,-0.6521,-0.6521,0,-0.6872,-0.6836,-0.6808,-0.6782,-0.6761,-0.6733,-0.6716,-0.6689,-0.6668,-0.6647,-0.6622,-0.6598,-0.6585,-0.6573,-0.6562,-0.6536,-0.6532,-0.6535,-0.6505,-0.6504,-0.6514,-0.6527,-0.6537,-0.6538,-0.652,-0.652,-0.652,0,-0.6868,-0.6842,-0.6814,-0.6776,-0.6766,-0.6752,-0.6721,-0.6702,-0.6671,-0.6656,-0.6635,-0.6613,-0.6591,-0.6582,-0.6552,-0.6555,-0.6541,-0.6527,-0.6526,-0.6522,-0.6513,-0.6523,-0.6538,-0.6538,-0.6519,-0.6519,-0.6519,0,-0.6889,-0.6847,-0.6825,-0.6811,-0.6766,-0.6757,-0.6738,-0.6707,-0.669,-0.6664,-0.6653,-0.6624,-0.6609,-0.6587,-0.6559,-0.6555,-0.6531,-0.652,-0.6518,-0.6519,-0.6514,-0.6515,-0.6527,-0.6506,-0.6506,-0.6506,-0.6506,0,-0.6893,-0.6877,-0.6835,-0.6821,-0.6803,-0.6771,-0.6754,-0.6733,-0.6706,-0.6688,-0.6662,-0.6645,-0.6609,-0.6588,-0.6566,-0.6544,-0.6537,-0.6525,-0.6519,-0.6527,-0.6529,-0.6517,-0.6516,-0.6506,-0.6506,-0.6506,-0.6506,0,-0.6914,-0.6884,-0.6859,-0.6819,-0.6809,-0.6797,-0.6763,-0.6749,-0.6726,-0.6704,-0.6697,-0.6661,-0.6635,-0.6605,-0.6569,-0.6554,-0.6535,-0.6526,-0.6546,-0.6542,-0.6543,-0.6543,-0.6547,-0.6546,-0.6526,-0.6527,-0.6527,0,-0.6918,-0.6905,-0.6864,-0.685,-0.6832,-0.681,-0.6794,-0.6763,-0.6747,-0.6711,-0.6702,-0.6674,-0.6651,-0.6611,-0.6582,-0.6555,-0.6545,-0.6549,-0.6541,-0.655,-0.6546,-0.6547,-0.6546,-0.6551,-0.6551,-0.6551,-0.6552,0,-0.6928,-0.6915,-0.6892,-0.6864,-0.6845,-0.6821,-0.6797,-0.6787,-0.6751,-0.6734,-0.6708,-0.669,-0.6654,-0.6628,-0.6597,-0.6577,-0.6559,-0.6555,-0.6553,-0.6561,-0.6573,-0.6567,-0.6551,-0.6554,-0.6554,-0.6554,-0.6554,-0.6554,-0.6941,-0.6928,-0.6898,-0.6873,-0.6852,-0.683,-0.6815,-0.6791,-0.6769,-0.6738,-0.6721,-0.6695,-0.6666,-0.6623,-0.6604,-0.6584,-0.6577,-0.6575,-0.6574,-0.6574,-0.6576,-0.6576,-0.6578,-0.6578,-0.6578,-0.6578,-0.6578,0,-0.695,-0.693,-0.6907,-0.6874,-0.6855,-0.684,-0.6812,-0.6797,-0.6775,-0.675,-0.6727,-0.6698,-0.6672,-0.6642,-0.6614,-0.6604,-0.6594,-0.6597,-0.6598,-0.6594,-0.6584,-0.6588,-0.6605,-0.6605,-0.6605,-0.6605,-0.6605,-0.6605,-0.6953,-0.6931,-0.6915,-0.6882,-0.6862,-0.6837,-0.6823,-0.6802,-0.6782,-0.675,-0.6729,-0.6709,-0.6682,-0.6652,-0.6628,-0.662,-0.6611,-0.6616,-0.6606,-0.6597,-0.6594,-0.6592,-0.6596,-0.6615,-0.6615,-0.6617,-0.6617,-0.6617]},{"header":{"parameterUnit":"m.s-1","parameterCategory":1,"la1":30.2991,"la2":30.254,"lo1":-89.0895,"lo2":-89.0444,"dy":0.0017,"dx":0.0017,"nx":28,"ny":28,"refTime":"2025-05-23T03:00:00:Z","depth":0,"parameterNumber":3,"parameterNumberName":"V-component_of_WINDS"},"data":[0,0,0,0,0,0,0,0,0,0,0,0,0,0,0,0,0,0,0,0,0,0,0,0,0,0,0,0,0,0,0,0,0,0,0,0,0,0,0,0,0,0,0,0,0,0,0,0,0,0,0,0,0,0,0,0,0,0,4.163,4.163,0,4.1622,4.1622,4.1621,4.1587,4.1586,4.1585,4.1584,4.1575,4.1576,4.1576,0,0,0,0,0,0,0,0,0,0,0,0,0,4.1616,4.1617,4.163,4.163,4.163,4.1622,4.1622,4.1621,4.1587,4.1586,4.1585,4.1584,4.1575,4.1576,4.1576,0,0,0,0,0,0,0,0,0,0,0,0,0,4.1617,4.1617,4.163,4.1612,4.161,4.1622,4.1622,4.1621,4.1587,4.1586,4.1585,4.1583,4.1575,4.1576,4.1576,4.1605,0,0,4.1579,4.1579,0,0,0,0,0,0,0,0,4.1617,4.1617,4.1614,4.1613,4.1611,4.1604,4.1613,4.1616,4.1587,4.1596,4.1584,4.1583,4.1586,4.1586,4.1587,4.1605,4.1604,4.1579,4.1579,4.158,4.158,0,0,0,0,0,0,0,4.1617,4.1617,4.1627,4.1614,4.1612,4.1604,4.1603,4.1614,4.1598,4.1595,4.1592,4.1592,4.1585,4.1586,4.1586,4.1604,4.1579,4.1579,4.158,4.158,4.1647,4.1648,0,0,0,0,0,0,4.1619,4.1618,4.1627,4.1626,4.1611,4.1605,4.1604,4.1607,4.1597,4.1595,4.1593,4.159,4.1585,4.1585,4.1586,4.1619,4.158,4.158,4.1581,4.1646,4.1647,4.1649,0,0,0,0,0,0,4.1619,4.162,4.1627,4.1621,4.1622,4.1607,4.1611,4.1608,4.1609,4.1596,4.1593,4.1597,4.1584,4.1585,4.1601,4.1619,4.1581,4.1581,4.1644,4.1646,4.1648,4.1687,0,0,0,0,0,0,4.1619,4.1621,4.1631,4.1622,4.1622,4.1643,4.1612,4.1609,4.1611,4.1607,4.1599,4.1597,4.1583,4.16,4.1602,4.1619,4.1582,4.1642,4.1645,4.1647,4.1684,4.169,4.1695,0,0,0,0,0,4.1619,4.1642,4.1632,4.1633,4.1635,4.1644,4.1644,4.1628,4.1612,4.1623,4.1615,4.1597,4.1617,4.1602,4.1604,4.1621,4.1641,4.1644,4.1647,4.1682,4.1689,4.1695,0,0,0,0,0,0,4.1654,4.1641,4.1629,4.165,4.1649,4.1638,4.1651,4.1636,4.1639,4.1635,4.1616,4.1614,4.1634,4.1629,4.1613,4.1649,4.1626,4.1629,4.1652,4.1658,4.1664,4.1665,4.1583,0,0,0,0,0,4.1664,4.1672,4.166,4.168,4.168,4.1666,4.1669,4.1657,4.1654,4.1653,4.1646,4.1644,4.165,4.1654,4.1658,4.1683,4.1681,4.1696,4.1702,4.1707,4.171,4.1724,4.173,4.1658,4.1658,4.1658,0,0,4.1685,4.1679,4.1685,4.1687,4.1684,4.1694,4.1665,4.1676,4.1683,4.1655,4.167,4.1665,4.1661,4.1682,4.1691,4.1679,4.173,4.171,4.1714,4.1715,4.1727,4.1734,4.174,4.166,4.166,4.166,0,0,4.1728,4.1725,4.1741,4.1739,4.1736,4.1726,4.173,4.1722,4.1718,4.1733,4.1712,4.172,4.173,4.1729,4.1729,4.1774,4.1758,4.1776,4.1805,4.1818,4.1824,4.1829,4.1845,4.1851,4.1779,4.1779,4.1779,0,4.1755,4.1768,4.1752,4.1764,4.1766,4.1742,4.1759,4.1757,4.1755,4.1757,4.1744,4.1757,4.1753,4.1773,4.1784,4.1786,4.179,4.1776,4.1825,4.1829,4.1834,4.1849,4.1855,4.1781,4.1781,4.1781,4.1781,0,4.1802,4.1811,4.1825,4.1824,4.1828,4.1842,4.1828,4.1834,4.1822,4.1814,4.183,4.1825,4.1828,4.1832,4.182,4.1852,4.1844,4.1828,4.1804,4.1843,4.1857,4.1863,4.1785,4.1784,4.1783,4.1782,0,0,4.1866,4.1857,4.1862,4.1862,4.1857,4.1864,4.1878,4.1881,4.1887,4.1886,4.1898,4.1908,4.1893,4.1894,4.1882,4.1894,4.193,4.1876,4.1876,4.1887,4.1965,4.1978,4.1985,4.192,4.1921,4.1922,4.1966,0,4.1908,4.1931,4.1917,4.1943,4.1952,4.1929,4.1942,4.194,4.1933,4.194,4.1932,4.194,4.192,4.192,4.1931,4.1924,4.1946,4.192,4.1931,4.1931,4.1932,4.1992,4.2005,4.2046,4.1971,4.1972,4.1973,0,4.1959,4.1962,4.1989,4.1983,4.1986,4.1997,4.2,4.2007,4.2004,4.1999,4.2,4.1986,4.2,4.1976,4.1995,4.1978,4.1981,4.1978,4.198,4.198,4.1954,4.1994,4.2059,4.2065,4.1981,4.198,4.198,0,4.2004,4.2014,4.2032,4.2032,4.2026,4.2034,4.2032,4.2029,4.2032,4.2035,4.2037,4.2041,4.2043,4.2047,4.2034,4.2018,4.2055,4.203,4.205,4.2051,4.2059,4.2059,4.2126,4.2061,4.2061,4.2061,4.2061,0,4.2052,4.2069,4.2052,4.2063,4.2082,4.2066,4.2085,4.208,4.2078,4.2088,4.2069,4.2078,4.2061,4.2068,4.2059,4.2076,4.2077,4.2073,4.207,4.2075,4.2075,4.2077,4.2074,4.2063,4.2062,4.2062,4.2062,0,4.2105,4.2094,4.2112,4.2105,4.2104,4.2118,4.2112,4.2122,4.2114,4.2127,4.2129,4.2117,4.2125,4.2113,4.212,4.2113,4.2137,4.213,4.2138,4.2136,4.2157,4.2156,4.2228,4.2237,4.2166,4.2167,4.2168,0,4.2137,4.215,4.2144,4.215,4.2149,4.2157,4.2161,4.2146,4.2151,4.215,4.2161,4.2167,4.2172,4.2187,4.2179,4.2184,4.2177,4.2202,4.2177,4.2182,4.2178,4.2177,4.2179,4.2207,4.2207,4.2208,4.2209,0,4.2194,4.2188,4.2195,4.22,4.2205,4.2208,4.2209,4.2215,4.2199,4.2206,4.2214,4.2218,4.2226,4.2233,4.2236,4.2234,4.2219,4.2217,4.2222,4.2227,4.2231,4.2229,4.2152,4.2215,4.2214,4.2214,4.2213,4.2213,4.2238,4.2248,4.2247,4.2255,4.2255,4.2257,4.2266,4.226,4.2267,4.2272,4.2263,4.2274,4.2273,4.2276,4.2275,4.2284,4.2273,4.228,4.2282,4.2284,4.2288,4.223,4.2285,4.2284,4.2284,4.2284,4.2284,0,4.2294,4.2292,4.23,4.2303,4.231,4.2296,4.2297,4.2303,4.2314,4.2314,4.2319,4.2329,4.2337,4.233,4.2336,4.2344,4.2337,4.2346,4.2345,4.2345,4.2297,4.2292,4.2351,4.2351,4.2351,4.2351,4.2351,4.2351,4.2324,4.2342,4.2337,4.2355,4.2353,4.2364,4.2366,4.2368,4.2368,4.2381,4.2387,4.2383,4.238,4.2386,4.2392,4.239,4.2393,4.2404,4.24,4.2355,4.2348,4.2342,4.2337,4.2405,4.2405,4.2447,4.2447,4.2448]}]]